Location: Martz Observatory
(42.0083°N, 79.0667°W)
Time: 21:03:23
(UTC-04:00)

Cosmos 1603 - Pass Details

Date: 26 May 2018
Orbit: 831 x 859 km, 71.0° (Epoch: 18 June)

Event Time Altitude Azimuth Distance (km) Brightness Sun altitude
Rises 01:50:16 0° 336° (NNW) 3,402 7.7 -26.3°
Reaches altitude 10° 01:52:43 10° 338° (NNW) 2,468 6.8 -26.2°
Maximum altitude 01:58:24 80° 66° (ENE) 864 3.7 -26.0°
Enters shadow 01:59:19 63° 136° (SE) 941 3.7 -26.0°
